Time,TemperatureF,DewpointF,PressureIn,WindDirection,WindDirectionDegrees,WindSpeedMPH,WindSpeedGustMPH,Humidity,HourlyPrecipIn,Conditions,Clouds,dailyrainin,SoftwareType,DateUTC
2013-03-22 00:02:00,36.0,21.0,30.05,ENE,72,2.0,8.0,54,0.00,,,0.00,,2013-03-22 05:02:00,
2013-03-22 00:12:00,36.0,21.0,30.05,ENE,72,2.0,8.0,54,0.00,,,0.00,,2013-03-22 05:12:00,
2013-03-22 00:22:00,36.0,21.0,30.06,ENE,78,2.0,3.0,54,0.00,,,0.00,,2013-03-22 05:22:00,
2013-03-22 00:32:00,36.0,21.0,30.05,ENE,65,3.0,5.0,55,0.00,,,0.00,,2013-03-22 05:32:00,
2013-03-22 00:42:00,36.0,21.0,30.05,ENE,65,3.0,5.0,55,0.00,,,0.00,,2013-03-22 05:42:00,
2013-03-22 00:52:00,36.0,21.0,30.05,NE,54,1.0,5.0,55,0.00,,,0.00,,2013-03-22 05:52:00,
2013-03-22 01:02:00,36.0,21.0,30.04,NE,38,0.0,5.0,54,0.00,,,0.00,,2013-03-22 06:02:00,
2013-03-22 01:13:00,36.0,21.0,30.04,NE,38,0.0,5.0,54,0.00,,,0.00,,2013-03-22 06:13:00,
2013-03-22 01:22:00,36.0,21.0,30.04,NE,54,0.0,4.0,55,0.00,,,0.00,,2013-03-22 06:22:00,
2013-03-22 01:32:00,36.0,22.0,30.04,ENE,75,1.0,5.0,56,0.00,,,0.00,,2013-03-22 06:32:00,
2013-03-22 01:42:00,36.0,22.0,30.04,ENE,75,1.0,5.0,56,0.00,,,0.00,,2013-03-22 06:42:00,
2013-03-22 01:52:00,36.0,21.0,30.04,NE,52,2.0,6.0,55,0.00,,,0.00,,2013-03-22 06:52:00,
2013-03-22 02:02:00,36.0,22.0,30.05,NE,54,1.0,4.0,56,0.00,,,0.00,,2013-03-22 07:02:00,
2013-03-22 02:12:00,36.0,22.0,30.05,NE,54,1.0,4.0,56,0.00,,,0.00,,2013-03-22 07:12:00,
2013-03-22 02:22:00,36.0,22.0,30.05,East,82,2.0,6.0,57,0.00,,,0.00,,2013-03-22 07:22:00,
2013-03-22 02:32:00,35.0,21.0,30.05,ENE,58,2.0,6.0,56,0.00,,,0.00,,2013-03-22 07:32:00,
2013-03-22 02:42:00,35.0,21.0,30.05,ENE,58,2.0,6.0,56,0.00,,,0.00,,2013-03-22 07:42:00,
2013-03-22 02:52:00,35.0,20.0,30.04,ENE,73,3.0,6.0,55,0.00,,,0.00,,2013-03-22 07:52:00,
2013-03-22 03:03:00,35.0,21.0,30.04,ENE,69,2.0,4.0,57,0.00,,,0.00,,2013-03-22 08:03:00,
2013-03-22 03:12:00,35.0,21.0,30.04,ENE,69,2.0,4.0,57,0.00,,,0.00,,2013-03-22 08:12:00,
2013-03-22 03:22:00,35.0,21.0,30.04,ENE,68,2.0,7.0,57,0.00,,,0.00,,2013-03-22 08:22:00,
2013-03-22 03:32:00,35.0,22.0,30.04,ENE,68,2.0,3.0,58,0.00,,,0.00,,2013-03-22 08:32:00,
2013-03-22 03:42:00,35.0,22.0,30.04,ENE,68,2.0,3.0,58,0.00,,,0.00,,2013-03-22 08:42:00,
2013-03-22 03:52:00,35.0,22.0,30.03,NE,41,0.0,3.0,58,0.00,,,0.00,,2013-03-22 08:52:00,
2013-03-22 04:02:00,35.0,21.0,30.03,ENE,59,2.0,6.0,57,0.00,,,0.00,,2013-03-22 09:02:00,
2013-03-22 04:12:00,35.0,21.0,30.03,ENE,59,2.0,6.0,57,0.00,,,0.00,,2013-03-22 09:12:00,
2013-03-22 04:22:00,35.0,22.0,30.03,ENE,66,1.0,6.0,58,0.00,,,0.00,,2013-03-22 09:22:00,
2013-03-22 04:32:00,35.0,21.0,30.03,ENE,75,2.0,6.0,57,0.00,,,0.00,,2013-03-22 09:32:00,
2013-03-22 04:42:00,35.0,21.0,30.03,ENE,75,2.0,6.0,57,0.00,,,0.00,,2013-03-22 09:42:00,
2013-03-22 04:53:00,35.0,22.0,30.03,ENE,62,1.0,6.0,58,0.00,,,0.00,,2013-03-22 09:53:00,
2013-03-22 05:03:00,35.0,21.0,30.02,ENE,72,2.0,6.0,57,0.00,,,0.00,,2013-03-22 10:03:00,
2013-03-22 05:12:00,35.0,21.0,30.02,ENE,72,2.0,6.0,57,0.00,,,0.00,,2013-03-22 10:12:00,
2013-03-22 05:22:00,35.0,21.0,30.02,NE,49,2.0,5.0,56,0.00,,,0.00,,2013-03-22 10:22:00,
2013-03-22 05:32:00,35.0,20.0,30.02,NE,48,3.0,6.0,55,0.00,,,0.00,,2013-03-22 10:32:00,
2013-03-22 05:42:00,35.0,20.0,30.02,NE,48,3.0,6.0,55,0.00,,,0.00,,2013-03-22 10:42:00,
2013-03-22 05:52:00,35.0,20.0,30.02,North,11,4.0,7.0,54,0.00,,,0.00,,2013-03-22 10:52:00,
2013-03-22 06:03:00,35.0,20.0,30.02,ENE,64,2.0,6.0,55,0.00,,,0.00,,2013-03-22 11:03:00,
2013-03-22 06:12:00,35.0,20.0,30.02,ENE,64,2.0,6.0,55,0.00,,,0.00,,2013-03-22 11:12:00,
2013-03-22 06:22:00,35.0,20.0,30.03,NE,55,0.0,2.0,55,0.00,,,0.00,,2013-03-22 11:22:00,
2013-03-22 06:32:00,35.0,20.0,30.04,NE,54,0.0,5.0,55,0.00,,,0.00,,2013-03-22 11:32:00,
2013-03-22 06:42:00,35.0,20.0,30.04,NE,54,0.0,5.0,55,0.00,,,0.00,,2013-03-22 11:42:00,
2013-03-22 06:52:00,35.0,20.0,30.04,ENE,61,1.0,7.0,55,0.00,,,0.00,,2013-03-22 11:52:00,
2013-03-22 07:02:00,35.0,20.0,30.04,East,80,2.0,5.0,54,0.00,,,0.00,,2013-03-22 12:02:00,
2013-03-22 07:12:00,35.0,20.0,30.04,ENE,69,2.0,6.0,55,0.00,,,0.00,,2013-03-22 12:12:00,
2013-03-22 07:22:00,35.0,20.0,30.04,ENE,69,2.0,6.0,55,0.00,,,0.00,,2013-03-22 12:22:00,
2013-03-22 07:32:00,35.0,20.0,30.05,ENE,68,4.0,7.0,55,0.00,,,0.00,,2013-03-22 12:32:00,
2013-03-22 07:42:00,35.0,20.0,30.05,ENE,68,4.0,7.0,55,0.00,,,0.00,,2013-03-22 12:42:00,
2013-03-22 07:52:00,35.0,20.0,30.05,NE,54,1.0,6.0,55,0.00,,,0.00,,2013-03-22 12:52:00,
2013-03-22 08:02:00,36.0,22.0,30.05,ENE,58,3.0,5.0,56,0.00,,,0.00,,2013-03-22 13:02:00,
2013-03-22 08:12:00,36.0,22.0,30.05,ENE,58,3.0,5.0,56,0.00,,,0.00,,2013-03-22 13:12:00,
2013-03-22 08:22:00,36.0,21.0,30.05,ENE,65,4.0,6.0,54,0.00,,,0.00,,2013-03-22 13:22:00,
2013-03-22 08:32:00,36.0,21.0,30.05,ENE,75,3.0,6.0,55,0.00,,,0.00,,2013-03-22 13:32:00,
2013-03-22 08:42:00,36.0,21.0,30.05,ENE,75,3.0,6.0,55,0.00,,,0.00,,2013-03-22 13:42:00,
2013-03-22 08:52:00,36.0,22.0,30.05,NNE,30,2.0,4.0,56,0.00,,,0.00,,2013-03-22 13:52:00,
2013-03-22 09:02:00,37.0,22.0,30.05,ENE,58,1.0,5.0,55,0.00,,,0.00,,2013-03-22 14:02:00,
2013-03-22 09:12:00,37.0,22.0,30.05,ENE,58,1.0,5.0,55,0.00,,,0.00,,2013-03-22 14:12:00,
2013-03-22 09:22:00,37.0,21.0,30.05,NE,51,5.0,7.0,53,0.00,,,0.00,,2013-03-22 14:22:00,
2013-03-22 09:32:00,37.0,21.0,30.05,NE,52,4.0,8.0,52,0.00,,,0.00,,2013-03-22 14:32:00,
2013-03-22 09:42:00,37.0,21.0,30.05,NE,52,4.0,8.0,52,0.00,,,0.00,,2013-03-22 14:42:00,
2013-03-22 09:52:00,38.0,22.0,30.04,ENE,62,2.0,4.0,53,0.00,,,0.00,,2013-03-22 14:52:00,
2013-03-22 10:02:00,38.0,22.0,30.05,ENE,58,3.0,7.0,52,0.00,,,0.00,,2013-03-22 15:02:00,
2013-03-22 10:12:00,38.0,22.0,30.05,ENE,58,3.0,7.0,52,0.00,,,0.00,,2013-03-22 15:12:00,
2013-03-22 10:13:00,38.0,21.0,30.04,ENE,69,3.0,6.0,50,0.00,,,0.00,,2013-03-22 15:13:00,
2013-03-22 10:22:00,38.0,22.0,30.05,ENE,66,2.0,7.0,51,0.00,,,0.00,,2013-03-22 15:22:00,
2013-03-22 10:32:00,38.0,21.0,30.04,ENE,69,3.0,6.0,50,0.00,,,0.00,,2013-03-22 15:32:00,
2013-03-22 10:42:00,38.0,21.0,30.04,ENE,69,3.0,6.0,50,0.00,,,0.00,,2013-03-22 15:42:00,
2013-03-22 10:53:00,38.0,21.0,30.04,ENE,69,3.0,6.0,50,0.00,,,0.00,,2013-03-22 15:53:00,
2013-03-22 11:02:00,38.0,21.0,30.04,ENE,69,3.0,6.0,50,0.00,,,0.00,,2013-03-22 16:02:00,
2013-03-22 12:33:00,41.0,24.0,30.05,East,88,3.0,7.0,51,0.00,,,0.00,,2013-03-22 17:33:00,
2013-03-22 12:42:00,41.0,24.0,30.05,East,88,3.0,7.0,51,0.00,,,0.00,,2013-03-22 17:42:00,
2013-03-22 12:53:00,41.0,24.0,30.05,NE,54,2.0,6.0,50,0.00,,,0.00,,2013-03-22 17:53:00,
2013-03-22 13:02:00,42.0,25.0,30.04,North,10,1.0,6.0,50,0.00,,,0.00,,2013-03-22 18:02:00,
2013-03-22 13:12:00,42.0,25.0,30.04,North,10,1.0,6.0,50,0.00,,,0.00,,2013-03-22 18:12:00,
2013-03-22 13:22:00,42.0,25.0,30.03,East,92,3.0,8.0,50,0.00,,,0.00,,2013-03-22 18:22:00,
2013-03-22 13:33:00,43.0,25.0,30.03,North,11,2.0,8.0,48,0.00,,,0.00,,2013-03-22 18:33:00,
2013-03-22 13:42:00,43.0,25.0,30.03,North,11,2.0,8.0,48,0.00,,,0.00,,2013-03-22 18:42:00,
2013-03-22 13:52:00,43.0,26.0,30.03,ENE,78,4.0,9.0,50,0.00,,,0.00,,2013-03-22 18:52:00,
2013-03-22 14:02:00,43.0,25.0,30.02,NE,55,1.0,6.0,48,0.00,,,0.00,,2013-03-22 19:02:00,
2013-03-22 14:12:00,43.0,25.0,30.02,NE,55,1.0,6.0,48,0.00,,,0.00,,2013-03-22 19:12:00,
2013-03-22 14:22:00,43.0,25.0,30.01,ENE,66,2.0,7.0,48,0.00,,,0.00,,2013-03-22 19:22:00,
2013-03-22 14:32:00,43.0,25.0,30.01,East,89,3.0,6.0,48,0.00,,,0.00,,2013-03-22 19:32:00,
2013-03-22 14:42:00,43.0,25.0,30.01,East,89,3.0,6.0,48,0.00,,,0.00,,2013-03-22 19:42:00,
2013-03-22 14:52:00,44.0,25.0,30.01,ENE,76,3.0,6.0,47,0.00,,,0.00,,2013-03-22 19:52:00,
2013-03-22 15:02:00,44.0,25.0,30.00,NNE,27,4.0,8.0,46,0.00,,,0.00,,2013-03-22 20:02:00,
2013-03-22 15:12:00,44.0,25.0,30.00,NNE,27,4.0,8.0,46,0.00,,,0.00,,2013-03-22 20:12:00,
2013-03-22 15:22:00,44.0,26.0,29.99,East,89,4.0,7.0,48,0.00,,,0.00,,2013-03-22 20:22:00,
2013-03-22 15:32:00,44.0,26.0,29.99,NE,52,2.0,7.0,48,0.00,,,0.00,,2013-03-22 20:32:00,
2013-03-22 15:42:00,44.0,26.0,29.99,NE,52,2.0,7.0,48,0.00,,,0.00,,2013-03-22 20:42:00,
2013-03-22 15:52:00,45.0,26.0,29.98,ENE,66,4.0,10.0,47,0.00,,,0.00,,2013-03-22 20:52:00,
2013-03-22 16:03:00,45.0,25.0,29.98,East,92,3.0,7.0,46,0.00,,,0.00,,2013-03-22 21:03:00,
2013-03-22 16:12:00,45.0,25.0,29.98,ENE,75,4.0,7.0,46,0.00,,,0.00,,2013-03-22 21:12:00,
2013-03-22 16:22:00,45.0,25.0,29.98,ENE,75,4.0,7.0,46,0.00,,,0.00,,2013-03-22 21:22:00,
2013-03-22 16:32:00,45.0,25.0,29.98,ENE,59,2.0,7.0,46,0.00,,,0.00,,2013-03-22 21:32:00,
2013-03-22 16:43:00,45.0,25.0,29.98,ENE,59,2.0,7.0,46,0.00,,,0.00,,2013-03-22 21:43:00,
2013-03-22 16:53:00,45.0,27.0,29.98,East,82,3.0,7.0,49,0.00,,,0.00,,2013-03-22 21:53:00,
2013-03-22 17:03:00,45.0,26.0,29.98,East,86,3.0,8.0,47,0.00,,,0.00,,2013-03-22 22:03:00,
2013-03-22 17:12:00,45.0,26.0,29.98,East,86,3.0,8.0,47,0.00,,,0.00,,2013-03-22 22:12:00,
2013-03-22 17:23:00,46.0,27.0,29.98,North,10,1.0,5.0,47,0.00,,,0.00,,2013-03-22 22:23:00,
2013-03-22 17:32:00,46.0,26.0,29.98,NE,41,3.0,5.0,46,0.00,,,0.00,,2013-03-22 22:32:00,
2013-03-22 17:42:00,46.0,26.0,29.98,NE,41,3.0,5.0,46,0.00,,,0.00,,2013-03-22 22:42:00,
2013-03-22 17:53:00,45.0,25.0,29.98,NNW,335,1.0,5.0,46,0.00,,,0.00,,2013-03-22 22:53:00,
2013-03-22 18:02:00,45.0,27.0,29.99,NNE,27,1.0,5.0,48,0.00,,,0.00,,2013-03-22 23:02:00,
2013-03-22 18:12:00,45.0,27.0,29.99,NNE,27,1.0,5.0,48,0.00,,,0.00,,2013-03-22 23:12:00,
2013-03-22 18:22:00,45.0,26.0,29.99,WNW,292,0.0,3.0,47,0.00,,,0.00,,2013-03-22 23:22:00,
2013-03-22 18:32:00,45.0,27.0,29.99,North,8,0.0,2.0,48,0.00,,,0.00,,2013-03-22 23:32:00,
2013-03-22 18:42:00,45.0,27.0,29.99,North,8,0.0,2.0,48,0.00,,,0.00,,2013-03-22 23:42:00,
2013-03-22 18:52:00,45.0,27.0,29.99,NNW,329,1.0,2.0,48,0.00,,,0.00,,2013-03-22 23:52:00,
2013-03-22 19:02:00,44.0,26.0,29.99,NE,49,1.0,3.0,49,0.00,,,0.00,,2013-03-23 00:02:00,
2013-03-22 19:12:00,44.0,26.0,29.99,NE,49,1.0,3.0,49,0.00,,,0.00,,2013-03-23 00:12:00,
2013-03-22 19:23:00,44.0,26.0,30.00,NNE,27,0.0,3.0,49,0.00,,,0.00,,2013-03-23 00:23:00,
2013-03-22 19:32:00,44.0,27.0,30.00,NNE,28,0.0,2.0,50,0.00,,,0.00,,2013-03-23 00:32:00,
2013-03-22 19:42:00,44.0,27.0,30.00,NE,34,1.0,2.0,51,0.00,,,0.00,,2013-03-23 00:42:00,
2013-03-22 19:52:00,44.0,27.0,30.00,NE,34,1.0,2.0,51,0.00,,,0.00,,2013-03-23 00:52:00,
2013-03-22 20:03:00,43.0,27.0,30.00,WNW,302,1.0,6.0,52,0.00,,,0.00,,2013-03-23 01:03:00,
2013-03-22 20:12:00,43.0,27.0,30.00,WNW,302,1.0,6.0,52,0.00,,,0.00,,2013-03-23 01:12:00,
2013-03-22 20:22:00,43.0,27.0,30.00,NNE,25,0.0,5.0,52,0.00,,,0.00,,2013-03-23 01:22:00,
2013-03-22 20:32:00,43.0,27.0,30.00,NNE,28,0.0,5.0,53,0.00,,,0.00,,2013-03-23 01:32:00,
2013-03-22 20:42:00,43.0,27.0,30.00,NNE,28,0.0,5.0,53,0.00,,,0.00,,2013-03-23 01:42:00,
2013-03-22 20:52:00,43.0,27.0,30.00,WSW,258,1.0,3.0,53,0.00,,,0.00,,2013-03-23 01:52:00,
2013-03-22 21:02:00,43.0,28.0,30.01,NNW,339,0.0,2.0,54,0.00,,,0.00,,2013-03-23 02:02:00,
2013-03-22 21:12:00,43.0,28.0,30.01,NNW,339,0.0,2.0,54,0.00,,,0.00,,2013-03-23 02:12:00,
2013-03-22 21:22:00,43.0,28.0,30.01,North,360,1.0,3.0,54,0.00,,,0.00,,2013-03-23 02:22:00,
2013-03-22 21:32:00,43.0,28.0,30.01,North,11,0.0,2.0,55,0.00,,,0.00,,2013-03-23 02:32:00,
2013-03-22 21:42:00,43.0,28.0,30.01,North,11,0.0,2.0,55,0.00,,,0.00,,2013-03-23 02:42:00,
2013-03-22 21:52:00,43.0,28.0,30.01,NE,52,0.0,3.0,56,0.00,,,0.00,,2013-03-23 02:52:00,
2013-03-22 22:02:00,42.0,27.0,30.01,SE,133,1.0,2.0,56,0.00,,,0.00,,2013-03-23 03:02:00,
2013-03-22 22:12:00,42.0,27.0,30.01,SE,133,1.0,2.0,56,0.00,,,0.00,,2013-03-23 03:12:00,
2013-03-22 22:22:00,43.0,28.0,30.01,ENE,76,3.0,6.0,55,0.00,,,0.00,,2013-03-23 03:22:00,
2013-03-22 22:33:00,43.0,28.0,30.01,East,85,1.0,3.0,55,0.00,,,0.00,,2013-03-23 03:33:00,
2013-03-22 22:43:00,43.0,28.0,30.01,East,85,1.0,3.0,55,0.00,,,0.00,,2013-03-23 03:43:00,
2013-03-22 22:53:00,43.0,28.0,30.02,North,360,0.0,1.0,56,0.00,,,0.00,,2013-03-23 03:53:00,
2013-03-22 23:02:00,43.0,28.0,30.02,North,360,0.0,1.0,56,0.00,,,0.00,,2013-03-23 04:02:00,
2013-03-22 23:12:00,43.0,28.0,30.02,North,360,0.0,1.0,56,0.00,,,0.00,,2013-03-23 04:12:00,
2013-03-22 23:23:00,42.0,28.0,30.02,North,360,0.0,1.0,57,0.00,,,0.00,,2013-03-23 04:23:00,
2013-03-22 23:32:00,42.0,27.0,30.02,North,360,0.0,0.0,56,0.00,,,0.00,,2013-03-23 04:32:00,
2013-03-22 23:43:00,42.0,27.0,30.02,North,360,0.0,0.0,56,0.00,,,0.00,,2013-03-23 04:43:00,
2013-03-22 23:53:00,42.0,28.0,30.02,North,360,0.0,2.0,58,0.00,,,0.00,,2013-03-23 04:53:00,